Regional Weather Roundup
Issued by NWS Goodland, KS

Home | Current Version | Previous Version | Graphics & Text | Print | Product List | Glossary On
Versions: 1 2 3 4 5 6 7 8 9 10 11 12 13 14 15 16 17 18 19 20 21 22 23 24 25 26 27 28 29 30 31 32 33 34 35 36 37 38 39 40 41 42 43 44 45 46 47 48 49 50
000
ASUS43 KGLD 210259
RWRGLD

GOODLAND FORECAST AREA HOURLY WEATHER ROUNDUP
NATIONAL WEATHER SERVICE GOODLAND KS
900 PM MDT MON OCT 20 2014

...OFFICIAL OBSERVATIONS...

CITY           SKY/WX    TMP DP  RH WIND       PRES   REMARKS
GOODLAND KS    CLEAR     53  39  59 S12       30.11S
HILL CITY KS   CLEAR     53  41  63 CALM      30.09R
IMPERIAL NEB   CLEAR     62  37  39 S9        30.07R
MCCOOK NEB     CLEAR     56  40  55 S7        30.07S
AKRON CO       CLEAR     57  40  52 S13       30.09S
BURLINGTON CO  CLEAR     56  39  53 S12       30.12R
LIMON CO       CLEAR     47  39  74 CALM      30.15S
$$

...UNOFFICIAL OBSERVATIONS...

CITY           SKY/WX    TMP DP  RH WIND       PRES   REMARKS
COLBY KS       CLEAR     55  43  62 SE6       30.11R
GOVE KS          N/A     56  32  40 MISG        N/A
NORTON KS      CLEAR     57  37  47 S8        30.07S
SHARON SPRINGS   N/A     53  42  66 N8          N/A
TRIBUNE KS     CLEAR     54  46  76 S8        30.14R
TRENTON NEB      N/A     55  32  41 S8          N/A
KIT CARSON CO    N/A     56  42  60 CALM        N/A
YUMA CO          N/A     55  40  57 S7          N/A
$$


USA.gov is the U.S. government's official web portal to all federal, state and local government web resources and services.